Vorticity
7 7 8 8 8 8 8 8 8 8 8 8 8 8 8 8 7 7 7 7 8 8 8 8 8 8 9 8 8 8 8 8 9 9 9 9 8 9 8 8 10 9 8 9 8 9 8 7 6 6 8 7 8 5 7 7 5 9 10 9 11 15 17 19 26 13 -1 5 6 -3 -3 10 11 -3 -4 6 9 4 7 7 -1 -2 -3 -3 3 9 12 14
7 7 7 6 6 7 7 7 8 8 8 8 8 8 8 7 7 7 7 8 8 8 8 9 9 9 9 9 9 9 9 9 10 9 9 10 10 10 10 9 10 9 9 9 8 9 8 6 6 7 7 6 6 6 8 7 6 9 7 9 14 14 13 18 18 6 4 8 7 -2 -11 -1 13 11 0 1 12 7 7 11 1 1 11 15 16 20 29 32
6 6 6 6 6 6 5 5 5 6 7 7 8 8 8 7 7 6 7 7 8 8 8 8 8 9 8 9 9 9 9 10 10 9 9 10 9 9 10 9 9 9 8 10 10 9 8 8 9 9 10 9 8 9 8 7 9 8 6 11 14 10 8 17 16 8 9 6 6 5 -7 -10 -3 8 3 -7 8 14 8 8 5 7 16 11 9 14 17 20
5 6 6 6 6 5 5 4 4 4 4 5 6 7 8 8 7 7 7 7 8 8 8 8 8 8 8 8 9 9 9 10 10 10 10 10 10 9 9 9 9 9 8 10 10 9 9 9 9 8 8 9 8 9 9 9 10 8 10 14 11 8 8 12 10 9 9 2 2 3 -1 1 -1 1 3 -5 2 12 9 8 4 -2 -0 3 8 13 11 10
6 7 7 6 5 5 4 4 4 4 4 4 5 6 7 8 8 7 7 8 8 8 8 8 7 8 8 9 9 9 10 11 11 10 11 10 10 9 9 10 9 9 9 9 9 9 10 9 7 7 7 7 5 7 9 7 7 7 10 12 9 9 11 10 5 6 9 1 -3 1 2 8 15 15 12 8 10 15 16 17 10 3 8 16 15 11 10 10
7 8 8 7 6 6 6 7 7 7 7 7 6 6 6 8 8 7 8 8 8 9 8 7 7 9 9 10 10 10 11 11 11 10 11 11 11 11 10 10 10 9 8 7 8 9 10 9 8 9 8 7 6 7 6 5 7 7 8 9 8 10 12 11 8 8 7 -1 -1 6 2 -1 11 16 8 7 13 15 16 17 16 15 17 15 11 7 9 10
7 8 8 7 7 7 8 8 8 9 9 9 10 8 6 7 8 7 8 9 9 9 7 7 8 10 11 12 12 12 12 10 10 10 10 11 12 13 12 11 11 9 8 7 7 9 9 9 9 9 8 7 7 6 4 4 5 6 7 7 8 9 9 8 7 7 4 -1 2 9 7 4 8 8 3 5 10 10 8 9 13 15 13 9 10 11 10 10
8 8 8 7 7 8 8 8 9 9 9 10 10 10 8 8 8 8 9 10 10 8 6 8 10 12 12 13 13 12 12 11 12 11 11 11 11 11 12 13 11 9 8 7 7 9 10 10 9 8 7 6 4 4 3 3 4 6 6 6 7 6 7 6 3 4 5 3 3 7 13 13 9 9 7 7 9 9 9 9 11 12 9 10 11 11 12 13
9 9 8 8 8 9 9 10 9 9 10 11 10 9 9 9 8 9 10 10 9 7 7 10 11 12 13 13 12 12 14 13 13 12 12 13 12 12 11 11 11 10 10 9 9 10 10 9 7 7 7 5 4 4 3 3 6 8 7 7 7 5 6 6 3 3 3 4 8 10 16 14 8 10 6 6 9 7 9 8 9 11 10 11 10 10 10 9
9 9 9 9 10 10 11 11 10 10 10 10 10 9 9 9 9 10 10 10 8 7 9 11 11 10 10 11 11 13 14 12 12 14 13 13 14 14 12 9 9 10 11 12 11 9 8 8 8 8 7 6 5 4 5 8 8 7 8 6 5 6 7 7 6 5 -0 1 4 5 7 5 8 11 4 6 9 5 8 6 5 7 7 9 9 10 10 9
8 8 9 9 10 11 11 11 11 10 10 10 10 10 9 9 10 10 10 8 7 8 10 10 9 7 6 7 9 13 16 13 13 15 14 14 14 15 14 11 9 8 9 11 10 9 8 8 8 8 8 7 7 4 5 8 8 7 6 5 5 5 6 8 7 4 0 -1 -0 3 5 2 7 12 6 7 8 7 7 4 7 13 12 11 7 6 6 7
8 8 8 9 10 11 11 11 10 10 10 10 10 10 9 10 10 10 8 8 7 8 10 8 7 5 5 5 6 9 12 13 14 15 14 13 14 14 14 13 11 10 10 10 10 11 11 10 9 9 9 9 9 7 6 6 5 5 4 3 4 5 7 13 13 7 4 4 4 7 9 7 8 8 5 7 7 6 9 9 13 15 11 5 0 3 6 8
8 8 8 9 10 11 11 10 10 10 10 10 10 9 10 11 10 9 8 7 7 8 9 7 6 5 5 5 5 6 8 10 12 14 14 14 13 14 14 14 13 13 13 13 13 13 13 13 14 14 13 12 11 10 9 9 8 8 9 5 6 12 14 14 15 12 10 10 8 8 11 12 12 8 5 6 7 9 12 13 10 5 4 8 11 13 12 13
8 8 8 9 9 10 9 9 9 10 10 10 10 10 11 11 9 9 8 7 7 9 8 6 5 6 6 6 6 6 6 8 9 12 14 14 12 12 13 14 13 12 12 12 13 13 12 12 13 16 18 16 12 12 10 9 8 10 13 13 15 18 18 18 18 16 12 10 10 13 16 16 13 10 8 7 7 7 7 5 -0 -1 5 16 22 17 12 12
9 8 8 9 9 9 9 9 10 10 10 10 11 12 11 10 9 8 8 7 8 8 7 6 6 6 6 6 7 6 6 7 7 8 10 12 12 10 10 11 11 11 11 11 11 12 12 12 10 11 15 15 12 11 9 7 7 9 15 20 21 18 17 24 24 20 16 11 15 16 13 15 13 7 8 9 7 6 6 2 -2 0 2 6 13 13 9 3
10 10 10 10 9 9 9 9 10 10 10 10 11 11 10 9 8 8 7 7 7 7 7 6 7 7 7 7 7 7 8 7 7 7 8 10 12 11 9 8 8 9 10 11 12 12 12 13 12 10 12 14 12 11 12 15 14 12 16 17 13 10 9 14 16 13 10 12 19 17 10 15 12 1 3 6 8 11 10 5 1 1 -3 -3 0 -2 -7 -13
11 10 10 10 10 10 10 10 10 10 9 10 11 10 9 9 8 7 6 6 7 6 6 6 7 8 7 8 8 8 8 7 8 8 8 8 10 12 11 10 9 9 9 10 11 11 11 12 12 11 11 10 11 11 12 15 15 11 12 12 10 11 9 8 11 3 -4 4 16 17 13 16 12 5 8 8 8 13 11 6 5 4 -0 -0 1 -5 -8 -7
12 12 11 11 11 11 11 11 10 10 10 10 11 10 9 9 8 6 4 5 6 5 5 5 6 7 8 9 9 9 8 7 7 7 8 8 7 9 10 11 11 11 9 9 10 10 9 11 13 15 14 14 17 18 10 3 8 13 13 12 10 13 14 9 9 1 -11 -5 10 19 17 17 17 9 6 8 8 9 7 5 5 5 5 8 10 6 4 9
12 12 12 12 12 11 11 11 10 10 10 10 10 9 8 9 8 6 4 3 4 4 4 5 6 7 8 9 9 10 9 8 8 8 9 9 8 9 9 10 11 11 10 8 9 10 9 9 12 15 14 13 13 13 7 1 10 19 16 14 5 6 13 6 8 9 -4 -3 12 23 15 10 20 17 6 7 7 4 1 2 2 1 7 14 11 12 19 20
11 11 11 12 12 12 11 11 11 10 10 10 10 9 8 8 8 7 5 3 3 3 3 4 5 6 7 8 10 10 8 8 9 8 9 8 8 8 9 10 10 10 10 9 9 11 11 10 9 11 12 10 9 7 6 9 20 24 17 13 2 -3 2 -0 11 20 8 8 13 16 10 -4 4 14 7 2 -1 2 3 -1 -0 1 8 11 7 16 26 23
9 9 9 10 9 10 11 11 11 11 10 10 9 9 9 8 8 8 6 3 3 3 2 3 3 4 6 7 9 9 8 7 7 6 7 7 7 8 9 9 9 10 10 10 11 10 10 13 13 11 7 8 12 11 11 15 22 23 9 1 -2 -5 -3 1 11 14 9 12 7 2 4 -5 -1 9 3 -2 -4 0 3 -3 -0 8 11 9 9 15 7 -1
8 8 9 9 8 7 8 10 10 9 9 10 9 8 9 9 7 8 8 6 5 3 3 4 4 5 6 7 8 11 9 7 7 7 6 7 7 8 8 8 8 9 10 9 11 10 7 9 12 10 4 3 6 4 7 12 19 25 10 -5 -1 0 6 16 12 4 7 11 3 -4 -6 -3 12 17 6 2 3 2 3 0 -0 4 6 5 4 7 7 4
10 9 8 8 9 9 8 8 9 9 8 9 10 10 9 9 9 8 7 7 7 6 5 5 5 6 7 8 8 9 9 7 7 7 7 6 6 8 8 7 7 8 8 8 8 8 7 7 10 9 7 7 6 1 5 10 14 23 14 -3 0 4 12 23 11 3 8 -0 -5 0 2 12 25 18 1 -2 2 3 -1 -4 1 3 2 2 -2 -2 7 10
10 12 11 9 9 10 11 10 9 9 9 8 9 11 11 11 12 12 11 9 9 8 5 6 8 8 8 8 7 7 8 7 7 8 8 7 7 8 8 6 7 8 8 9 9 10 9 8 8 7 8 9 8 6 8 13 12 15 13 2 1 4 7 13 4 -4 0 -6 -6 1 -1 6 14 4 -4 -2 4 8 -3 -11 -0 8 2 1 3 -1 -1 4
6 9 12 12 10 9 10 11 11 10 9 9 8 8 8 7 8 9 10 10 13 12 8 8 8 7 7 6 5 5 4 4 7 9 8 8 8 7 6 6 9 9 7 6 8 11 9 6 6 7 8 8 8 11 9 11 12 11 15 7 -2 3 2 2 2 -7 -6 -0 4 4 -6 -7 2 -2 -8 -3 2 7 5 -5 -3 7 5 3 3 2 8 14
4 4 7 10 12 11 9 9 12 11 10 11 11 11 9 8 8 8 7 6 9 11 10 11 9 7 9 8 9 10 7 5 5 5 5 6 7 7 6 7 8 7 5 3 4 10 11 7 8 7 6 5 5 11 14 17 15 9 19 14 -7 -0 4 -1 3 -2 -7 -2 0 4 3 3 12 10 3 5 4 2 2 -4 -5 4 7 4 2 9 25 24
5 5 4 6 9 12 11 9 9 10 11 11 12 14 14 13 11 11 10 8 10 9 5 8 10 11 12 10 12 14 13 14 14 14 14 11 9 9 10 11 11 8 6 7 7 10 11 8 10 8 4 5 5 7 10 18 18 9 21 26 -2 -7 5 2 5 4 -6 -5 -2 -2 2 9 15 15 14 14 10 5 2 -3 -3 2 1 -2 2 7 13 11
7 6 4 5 6 8 10 10 9 8 10 11 9 9 11 13 12 12 10 9 15 15 8 7 7 7 8 7 9 10 10 15 18 20 20 15 9 10 16 20 17 8 5 8 7 6 8 5 8 9 4 4 7 9 9 11 14 10 18 31 10 -10 -1 3 2 6 -1 -3 1 -4 -3 8 7 8 20 19 11 7 3 -2 -3 -1 -2 -4 -0 1 -2 1
12 9 7 5 5 6 7 9 10 8 8 9 8 7 7 7 8 9 8 7 10 10 10 14 13 8 6 5 6 6 7 10 11 13 16 16 13 13 16 16 11 6 4 7 6 7 12 8 5 6 6 4 -1 3 14 12 10 9 12 25 20 -2 -5 -1 -3 2 4 1 0 -4 -2 6 4 8 23 23 17 12 3 -0 -1 1 4 1 1 3 3 6
13 14 12 10 8 7 6 7 9 9 8 7 6 8 8 7 7 6 7 9 7 4 5 10 11 10 9 11 12 8 7 9 8 9 10 9 10 14 16 9 7 8 4 6 10 11 12 8 3 2 2 5 0 -0 15 18 11 9 8 16 22 9 -5 -5 -5 -5 -1 -0 -1 -4 -4 2 4 9 11 6 13 19 13 9 9 9 10 6 4 4 4 6
8 10 12 13 12 10 8 8 8 9 10 8 7 7 7 7 8 7 8 9 11 12 12 8 7 8 10 16 18 11 6 8 7 6 6 7 4 7 13 9 7 8 3 5 11 16 17 9 3 5 1 4 12 13 15 17 15 13 9 10 17 14 5 3 5 5 5 5 4 0 -1 1 4 11 15 8 12 18 14 8 8 11 10 7 5 1 3 9
6 7 8 10 12 12 11 9 9 9 9 9 10 9 8 7 8 10 10 9 12 16 18 17 16 13 8 11 14 12 11 13 12 8 7 12 12 11 14 10 5 3 3 7 8 13 22 13 1 7 7 4 13 16 11 12 15 12 12 12 11 11 10 11 13 15 18 18 15 10 8 9 8 11 15 12 13 13 8 5 6 9 8 8 12 10 8 11
6 6 6 6 8 10 10 10 10 9 8 9 9 9 10 9 10 16 17 16 15 13 15 18 19 16 8 7 7 3 4 6 8 8 4 10 17 16 17 16 8 2 3 8 8 5 11 13 7 6 5 4 10 14 12 12 10 6 12 17 15 11 7 6 8 12 16 19 20 17 13 12 11 12 11 9 12 12 8 5 5 7 6 7 12 11 7 6
8 7 8 7 7 6 6 8 9 9 8 7 8 8 10 11 14 18 17 16 15 10 9 8 12 16 12 14 14 6 8 9 6 7 4 9 13 6 10 18 12 7 6 8 12 4 -4 2 8 8 8 8 11 13 12 13 12 7 9 12 12 10 6 6 11 14 17 17 17 18 14 9 8 11 13 10 10 9 7 7 6 8 10 10 9 6 2 2
11 11 10 9 10 7 6 6 7 9 8 7 7 6 10 16 17 14 12 13 11 8 6 -0 6 17 17 19 18 10 17 18 12 11 6 7 11 4 10 22 14 8 6 7 14 10 -1 1 6 9 13 7 2 7 13 23 25 12 6 6 6 8 9 10 13 14 15 14 12 12 11 9 8 8 12 14 11 6 5 8 9 8 8 9 9 8 7 7
11 12 11 11 10 8 7 7 6 7 7 7 8 5 10 18 14 8 9 11 10 10 10 4 1 5 9 16 9 0 9 11 8 13 6 3 10 5 8 18 16 13 10 8 14 12 6 11 11 12 20 15 4 6 15 24 23 11 9 9 5 7 8 7 12 14 14 15 15 15 14 14 13 11 15 21 22 17 16 16 13 13 18 17 11 9 9 9
15 15 15 14 11 8 8 8 7 7 6 6 7 5 9 15 12 8 9 11 10 10 12 10 3 -4 2 14 10 2 5 5 6 11 6 2 3 2 8 14 12 15 15 9 6 4 5 13 16 14 17 16 8 5 9 19 19 9 12 15 9 9 8 4 7 12 15 18 19 17 15 13 11 10 8 9 12 15 19 18 13 13 17 11 2 3 6 7
15 18 18 15 14 14 13 11 10 9 7 6 7 7 7 10 12 14 14 13 10 10 11 12 10 5 7 12 12 9 3 -0 3 6 9 12 4 -4 5 9 4 6 11 11 8 3 3 9 15 11 4 2 1 1 7 19 20 7 2 8 9 9 8 5 5 8 13 15 14 14 13 11 10 11 8 7 8 8 8 7 5 6 7 2 2 7 9 10
11 14 14 12 13 16 17 17 15 11 8 6 7 9 7 8 13 16 16 12 5 4 9 10 10 10 7 6 9 14 10 5 8 4 3 13 12 7 8 5 3 6 5 8 10 5 4 7 9 11 9 4 2 2 4 8 10 5 1 3 4 1 -3 -5 -1 7 12 11 11 13 14 13 11 10 10 11 10 8 7 5 5 8 9 8 11 11 8 10
9 8 9 9 11 13 14 16 18 17 16 12 10 10 9 8 12 14 14 12 7 4 4 5 8 10 8 4 5 14 17 11 10 7 0 3 9 15 19 10 6 7 2 1 5 3 4 7 7 11 12 9 8 7 5 2 -1 -2 6 12 9 5 1 -2 0 5 4 3 6 8 9 11 9 6 7 8 7 6 6 4 6 11 10 9 13 14 11 11
12 7 6 6 6 7 8 11 14 17 20 19 15 13 11 8 10 12 10 12 12 8 -0 -4 -1 3 6 5 4 15 24 15 7 6 5 3 -1 2 13 11 7 8 2 1 4 1 1 5 9 14 8 0 7 9 3 5 2 -3 7 18 15 7 4 5 5 -0 -3 -3 -2 1 2 4 5 6 6 7 8 8 7 7 9 7 2 1 10 16 15 11
17 13 9 7 5 5 7 6 7 11 18 24 22 17 13 9 8 12 11 11 13 10 6 4 1 -2 -1 2 2 11 20 15 7 6 9 9 -0 -3 4 5 4 8 6 4 4 1 3 3 6 18 10 -12 -8 5 6 7 9 8 9 12 13 10 6 6 4 0 2 2 2 8 11 5 3 7 7 5 6 7 8 8 6 6 6 4 6 7 6 4
20 16 12 10 6 4 4 4 10 15 17 21 24 22 19 14 9 11 11 11 13 10 7 10 9 3 -2 -2 -1 3 7 8 8 10 12 13 9 7 8 4 2 6 8 9 9 3 4 3 2 18 27 7 -6 1 7 4 5 11 8 1 7 11 6 4 3 4 7 5 5 13 14 7 4 6 7 7 5 5 6 4 1 7 12 6 -1 0 3 5
20 19 15 12 11 10 10 11 14 10 3 9 19 20 18 15 11 11 10 9 10 7 0 0 5 8 6 2 1 1 1 3 9 13 8 4 10 16 16 12 8 5 2 4 9 6 5 5 1 5 20 21 1 -15 -9 1 4 7 5 1 3 3 1 4 5 5 6 3 3 4 1 -0 -1 -3 -2 -0 -2 -4 -1 2 3 7 7 -1 -4 2 9 11
16 19 17 14 14 13 14 13 10 1 -5 1 12 15 16 14 9 9 10 7 6 5 2 -2 -1 2 6 7 7 6 2 -5 -2 9 5 -6 -2 7 10 15 21 19 10 3 3 5 4 4 -1 -7 1 15 9 -5 -0 9 7 1 -1 -0 1 0 4 8 5 4 2 -1 1 1 -1 1 1 -0 2 4 5 5 6 6 6 5 3 2 3 6 8 7
13 17 18 16 13 10 7 6 6 7 6 8 12 14 16 16 11 8 7 6 5 5 4 2 0 1 4 8 12 13 9 -2 -7 2 9 5 2 -1 -4 0 14 24 24 14 5 2 3 4 1 -0 5 11 9 5 8 7 3 3 4 4 4 4 4 3 1 2 -0 -0 3 4 8 13 11 9 9 7 8 10 11 11 8 4 3 3 5 5 4 4
14 15 17 15 13 13 11 8 6 5 7 11 15 14 14 16 15 13 9 5 5 6 6 4 3 4 5 7 12 15 12 6 2 2 5 6 5 2 -5 -8 -4 5 17 24 19 11 9 9 6 5 10 12 9 7 8 5 2 5 11 11 9 6 3 2 3 3 2 6 9 6 5 6 1 -2 -2 -2 -1 1 2 2 2 1 0 -1 -1 -1 0 4
18 14 16 16 12 11 13 14 15 13 10 10 9 8 11 15 14 13 12 9 7 7 7 8 9 9 6 1 1 7 9 9 11 11 8 6 5 5 5 3 -1 -6 -4 5 11 12 14 16 13 9 9 10 7 6 9 7 -0 0 9 12 10 9 8 7 8 7 5 9 10 4 0 0 -2 -2 -1 1 3 4 3 1 -0 1 0 -2 -0 2 5 6
23 13 14 19 18 15 12 8 10 13 13 13 11 8 9 12 11 12 13 12 13 11 7 9 12 13 14 8 -1 -2 3 5 8 12 12 11 10 8 6 7 8 4 -1 -3 -2 1 3 3 2 0 -0 -2 -5 -4 1 1 -2 0 6 8 9 11 11 9 8 6 4 4 3 -0 0 2 3 2 2 3 4 5 5 4 3 3 2 1 1 1 3 5
27 17 10 11 13 16 16 11 10 13 10 7 11 11 9 8 8 12 15 13 14 15 11 8 9 8 11 15 12 7 5 3 7 12 12 9 10 11 8 7 7 9 10 9 7 6 4 2 1 2 4 7 9 11 11 10 10 11 10 9 9 9 8 5 3 1 1 1 0 -0 2 3 2 1 1 3 3 3 3 3 3 3 2 3 3 1 2 3
29 22 15 10 8 10 12 9 11 18 14 7 9 12 12 10 8 9 15 16 12 11 12 10 10 10 9 9 11 12 11 11 10 8 7 7 6 5 6 6 3 3 6 7 6 7 8 10 11 10 8 9 9 9 11 13 13 12 11 10 9 8 7 4 2 2 2 2 3 5 6 6 5 6 6 5 5 5 7 7 7 8 8 7 7 8 9 9
31 27 22 15 10 10 9 3 0 5 10 12 15 15 13 13 12 11 13 16 15 11 11 8 6 9 12 12 11 11 11 11 7 1 6 13 11 7 8 10 7 5 6 6 4 3 1 1 5 6 3 3 3 1 2 2 2 3 5 3 3 6 8 5 5 5 5 4 5 5 6 6 6 7 7 7 8 9 10 10 10 11 12 11 10 11 10 10
Height
5759 5759 5760 5760 5761 5761 5761 5762 5762 5763 5764 5764 5765 5766 5767 5768 5768 5769 5770 5771 5772 5772 5773 5773 5774 5774 5774 5775 5775 5776 5776 5777 5777 5778 5778 5778 5779 5780 5781 5782 5782 5783 5784 5784 5785 5786 5786 5787 5787 5788 5789 5790 5790 5791 5792 5792 5793 5794 5795 5796 5798 5799 5800 5800 5800 5800 5800 5801 5801 5800 5802 5803 5805 5806 5806 5805 5805 5807 5809 5810 5810 5809 5809 5809 5809 5809 5809 5810
5757 5757 5758 5758 5759 5759 5759 5760 5760 5761 5761 5762 5763 5763 5764 5765 5766 5767 5768 5768 5769 5769 5770 5770 5771 5771 5772 5772 5772 5773 5773 5773 5774 5775 5775 5775 5776 5777 5778 5779 5780 5780 5781 5781 5782 5783 5783 5784 5784 5785 5787 5787 5788 5789 5790 5790 5790 5792 5793 5794 5797 5797 5797 5797 5797 5796 5796 5797 5797 5797 5798 5801 5803 5803 5804 5804 5803 5804 5807 5808 5809 5807 5807 5807 5806 5806 5806 5806
5755 5755 5756 5756 5756 5757 5757 5758 5758 5759 5759 5760 5760 5761 5762 5763 5763 5764 5765 5766 5766 5767 5767 5768 5768 5769 5769 5769 5769 5770 5770 5770 5771 5771 5772 5772 5773 5774 5775 5775 5776 5777 5778 5778 5780 5780 5781 5782 5783 5784 5785 5786 5786 5787 5787 5788 5789 5790 5791 5793 5794 5794 5793 5794 5794 5794 5793 5794 5795 5795 5796 5798 5800 5801 5802 5802 5800 5802 5805 5805 5806 5806 5805 5804 5803 5803 5803 5804
5752 5753 5753 5754 5754 5755 5755 5755 5756 5756 5757 5757 5758 5759 5759 5760 5761 5762 5763 5763 5764 5764 5765 5765 5766 5766 5766 5766 5767 5767 5767 5767 5768 5768 5769 5769 5770 5770 5771 5772 5773 5774 5775 5776 5777 5778 5779 5780 5781 5782 5783 5784 5784 5785 5786 5786 5787 5788 5789 5791 5791 5791 5791 5792 5792 5792 5792 5792 5793 5793 5795 5797 5798 5799 5800 5799 5799 5801 5802 5802 5803 5803 5802 5802 5801 5801 5801 5801
5750 5750 5751 5751 5752 5752 5753 5753 5754 5754 5754 5755 5756 5756 5757 5758 5759 5760 5760 5761 5761 5762 5762 5763 5763 5764 5764 5764 5764 5764 5764 5764 5765 5765 5766 5766 5767 5768 5768 5769 5771 5772 5773 5774 5774 5775 5776 5777 5778 5779 5781 5782 5782 5783 5784 5784 5785 5785 5787 5788 5788 5789 5790 5790 5789 5790 5789 5790 5791 5792 5794 5795 5796 5797 5797 5798 5798 5799 5799 5799 5800 5800 5799 5799 5799 5799 5799 5800
5747 5748 5748 5749 5749 5750 5750 5751 5751 5751 5752 5753 5753 5754 5755 5756 5756 5757 5758 5759 5759 5759 5760 5760 5761 5761 5761 5761 5761 5761 5761 5761 5761 5762 5762 5763 5764 5765 5766 5767 5768 5769 5770 5771 5772 5773 5773 5775 5776 5777 5779 5779 5781 5782 5782 5782 5782 5783 5785 5786 5786 5787 5788 5788 5788 5788 5787 5788 5790 5793 5795 5794 5793 5793 5794 5795 5796 5795 5795 5796 5798 5797 5796 5797 5796 5797 5798 5798
5744 5745 5746 5746 5746 5747 5747 5748 5748 5749 5749 5750 5751 5751 5752 5753 5754 5755 5756 5756 5757 5757 5757 5758 5758 5759 5759 5759 5759 5758 5758 5758 5759 5759 5760 5761 5761 5762 5763 5764 5765 5766 5767 5768 5769 5770 5771 5773 5774 5776 5777 5777 5778 5779 5778 5778 5778 5780 5782 5784 5784 5785 5786 5786 5786 5786 5786 5787 5790 5793 5794 5792 5791 5790 5790 5792 5792 5792 5792 5793 5795 5794 5794 5794 5794 5795 5796 5796
5742 5742 5743 5743 5744 5744 5745 5745 5746 5746 5747 5747 5748 5749 5750 5751 5752 5752 5753 5754 5754 5755 5755 5756 5756 5756 5756 5756 5756 5756 5756 5756 5756 5757 5757 5758 5759 5759 5760 5761 5762 5763 5764 5765 5767 5768 5769 5771 5772 5773 5773 5774 5774 5775 5774 5774 5776 5778 5780 5781 5782 5782 5783 5784 5784 5785 5785 5787 5788 5790 5791 5791 5790 5788 5788 5789 5789 5789 5790 5791 5792 5792 5792 5792 5792 5793 5793 5793
5739 5739 5740 5740 5741 5741 5742 5742 5743 5744 5744 5745 5745 5746 5747 5748 5749 5750 5750 5751 5752 5752 5753 5753 5753 5754 5754 5754 5754 5753 5753 5754 5754 5754 5754 5755 5756 5757 5758 5759 5760 5761 5762 5763 5764 5766 5767 5767 5768 5768 5769 5770 5771 5771 5772 5773 5774 5776 5778 5778 5779 5780 5781 5782 5782 5783 5784 5785 5786 5788 5789 5789 5788 5786 5786 5786 5786 5787 5788 5789 5790 5791 5791 5790 5790 5791 5791 5790
5736 5737 5737 5738 5738 5739 5739 5740 5740 5741 5741 5742 5743 5744 5745 5745 5746 5747 5748 5748 5749 5750 5750 5751 5751 5751 5751 5751 5751 5751 5751 5751 5752 5752 5752 5753 5754 5754 5755 5756 5757 5758 5759 5761 5762 5763 5763 5764 5764 5765 5767 5767 5769 5769 5770 5771 5772 5774 5775 5776 5777 5778 5779 5780 5780 5781 5782 5782 5784 5786 5787 5787 5786 5785 5785 5783 5784 5785 5786 5787 5788 5789 5789 5788 5789 5789 5789 5788
5733 5734 5734 5735 5735 5736 5736 5737 5738 5738 5739 5739 5740 5741 5742 5743 5744 5745 5745 5746 5747 5747 5748 5748 5749 5749 5749 5749 5749 5749 5749 5749 5750 5750 5750 5751 5751 5752 5753 5754 5755 5756 5757 5758 5759 5759 5760 5761 5762 5763 5765 5766 5767 5768 5769 5770 5771 5772 5773 5774 5776 5777 5778 5779 5779 5779 5779 5781 5783 5783 5784 5785 5784 5784 5783 5781 5782 5784 5784 5785 5786 5786 5786 5786 5786 5787 5787 5787
5730 5731 5731 5732 5733 5733 5734 5734 5735 5735 5736 5737 5737 5738 5739 5740 5741 5742 5743 5744 5744 5745 5746 5746 5747 5747 5747 5747 5748 5748 5747 5747 5748 5748 5748 5749 5749 5750 5751 5752 5753 5754 5755 5755 5756 5757 5758 5758 5760 5761 5762 5764 5765 5766 5767 5768 5769 5770 5771 5772 5773 5775 5776 5777 5776 5777 5777 5779 5780 5779 5781 5782 5782 5782 5780 5779 5781 5782 5782 5783 5784 5785 5784 5784 5784 5784 5785 5785
5727 5728 5729 5729 5730 5730 5731 5731 5732 5733 5733 5734 5735 5736 5737 5738 5739 5740 5741 5741 5742 5743 5744 5744 5745 5745 5745 5745 5746 5746 5746 5745 5746 5746 5747 5747 5747 5748 5749 5749 5750 5751 5752 5753 5754 5754 5755 5756 5758 5759 5760 5762 5762 5763 5765 5766 5767 5768 5768 5769 5771 5772 5773 5773 5773 5774 5776 5776 5776 5776 5779 5779 5779 5778 5776 5777 5779 5780 5780 5782 5783 5783 5783 5782 5782 5782 5782 5782
5725 5725 5726 5727 5727 5728 5728 5729 5729 5730 5731 5731 5732 5733 5734 5735 5736 5737 5738 5739 5740 5741 5741 5742 5743 5743 5743 5743 5744 5745 5744 5744 5744 5745 5745 5745 5745 5746 5747 5747 5748 5749 5750 5750 5751 5752 5753 5754 5755 5757 5758 5759 5759 5761 5762 5763 5764 5765 5765 5766 5768 5768 5769 5770 5771 5772 5773 5773 5773 5774 5776 5776 5776 5774 5772 5775 5777 5777 5778 5779 5781 5781 5781 5781 5781 5781 5781 5781
5722 5723 5723 5724 5724 5725 5726 5726 5727 5727 5728 5729 5730 5731 5732 5733 5734 5735 5736 5737 5738 5738 5739 5740 5740 5741 5741 5741 5742 5743 5743 5743 5743 5743 5743 5743 5744 5744 5745 5745 5746 5746 5747 5748 5749 5749 5750 5751 5752 5754 5755 5756 5757 5758 5759 5760 5761 5762 5763 5764 5765 5765 5766 5767 5769 5770 5769 5769 5771 5772 5773 5773 5772 5771 5769 5772 5774 5775 5775 5776 5778 5779 5779 5779 5780 5780 5780 5780
5720 5720 5721 5721 5722 5722 5723 5723 5724 5725 5725 5726 5727 5728 5729 5730 5731 5733 5734 5735 5735 5736 5737 5738 5738 5738 5739 5739 5740 5740 5741 5741 5741 5741 5741 5742 5742 5742 5743 5743 5744 5744 5745 5746 5747 5747 5748 5749 5750 5751 5752 5753 5754 5756 5757 5758 5759 5760 5761 5761 5761 5762 5763 5764 5765 5766 5766 5767 5768 5769 5770 5769 5769 5768 5767 5770 5772 5772 5773 5774 5775 5777 5777 5778 5778 5778 5778 5779
5717 5718 5718 5719 5719 5720 5720 5721 5721 5722 5723 5724 5725 5726 5727 5728 5729 5730 5731 5732 5733 5734 5735 5735 5736 5736 5736 5737 5738 5738 5739 5739 5740 5740 5740 5740 5740 5740 5741 5742 5742 5743 5744 5744 5745 5746 5747 5747 5748 5749 5750 5751 5752 5754 5755 5756 5756 5757 5758 5759 5759 5759 5760 5762 5763 5764 5764 5765 5766 5766 5766 5766 5766 5766 5767 5768 5770 5770 5771 5772 5774 5775 5775 5776 5777 5777 5777 5777
5715 5716 5716 5716 5717 5717 5718 5718 5719 5720 5720 5721 5722 5723 5724 5725 5727 5728 5729 5730 5731 5732 5732 5733 5734 5734 5734 5735 5736 5736 5737 5737 5737 5738 5738 5738 5738 5739 5739 5740 5741 5741 5742 5742 5743 5744 5745 5745 5746 5747 5748 5749 5751 5752 5752 5752 5753 5755 5756 5756 5757 5758 5759 5761 5762 5762 5762 5763 5764 5764 5764 5764 5764 5765 5766 5767 5768 5769 5770 5771 5773 5774 5774 5774 5774 5775 5776 5776
5713 5713 5714 5714 5715 5715 5715 5716 5717 5717 5718 5719 5720 5721 5722 5723 5724 5725 5726 5728 5728 5729 5730 5731 5731 5732 5732 5733 5734 5734 5735 5735 5735 5736 5736 5736 5737 5737 5738 5738 5739 5739 5740 5741 5741 5742 5743 5744 5745 5746 5747 5747 5748 5749 5749 5750 5752 5753 5754 5755 5755 5756 5757 5759 5760 5760 5760 5761 5762 5762 5762 5762 5763 5764 5765 5765 5766 5768 5769 5771 5772 5772 5772 5772 5772 5773 5774 5774
5711 5711 5712 5712 5712 5713 5713 5714 5714 5715 5716 5716 5717 5718 5719 5720 5721 5723 5724 5725 5726 5727 5728 5729 5729 5729 5730 5731 5732 5732 5732 5733 5733 5734 5734 5735 5735 5736 5736 5737 5737 5738 5738 5739 5740 5741 5742 5742 5743 5744 5744 5745 5746 5747 5747 5749 5751 5752 5752 5752 5753 5754 5755 5757 5757 5757 5758 5759 5760 5762 5762 5762 5762 5763 5763 5763 5764 5766 5768 5769 5770 5770 5770 5770 5770 5771 5772 5772
5709 5709 5710 5710 5710 5711 5711 5711 5712 5712 5713 5714 5715 5716 5717 5718 5719 5720 5721 5722 5723 5724 5726 5726 5726 5727 5728 5729 5730 5730 5730 5731 5731 5732 5733 5733 5733 5734 5734 5735 5735 5736 5736 5737 5739 5739 5740 5741 5741 5742 5742 5743 5744 5745 5746 5747 5749 5751 5751 5751 5751 5752 5754 5755 5755 5755 5756 5758 5760 5761 5763 5763 5763 5763 5762 5762 5763 5764 5766 5767 5767 5767 5767 5768 5768 5769 5770 5771
5707 5707 5708 5708 5708 5708 5709 5709 5710 5710 5711 5712 5713 5713 5714 5715 5717 5718 5719 5720 5721 5722 5723 5724 5724 5725 5726 5727 5728 5728 5728 5728 5729 5730 5730 5731 5731 5732 5733 5733 5733 5734 5735 5736 5737 5737 5738 5739 5739 5740 5740 5741 5743 5744 5745 5746 5747 5749 5749 5749 5750 5750 5752 5753 5753 5754 5755 5757 5758 5760 5762 5763 5763 5762 5762 5762 5762 5763 5764 5765 5765 5765 5765 5766 5766 5766 5767 5769
5705 5705 5705 5706 5706 5706 5706 5707 5707 5708 5709 5709 5710 5711 5712 5713 5714 5715 5716 5717 5718 5719 5721 5722 5722 5722 5723 5724 5725 5726 5726 5726 5727 5727 5728 5729 5729 5730 5731 5731 5731 5732 5733 5734 5735 5735 5735 5736 5737 5738 5739 5739 5740 5742 5743 5744 5745 5747 5747 5748 5748 5749 5751 5752 5752 5753 5754 5755 5757 5759 5761 5762 5762 5761 5761 5761 5762 5762 5762 5763 5763 5763 5763 5764 5764 5764 5765 5766
5703 5703 5703 5703 5703 5703 5704 5704 5705 5706 5706 5707 5708 5709 5710 5711 5712 5713 5714 5715 5715 5716 5718 5719 5719 5720 5721 5721 5722 5723 5724 5724 5725 5725 5725 5726 5727 5728 5728 5728 5729 5731 5732 5732 5733 5733 5733 5734 5735 5736 5737 5737 5738 5739 5740 5742 5743 5744 5746 5747 5747 5747 5748 5749 5750 5750 5751 5753 5754 5756 5758 5760 5761 5761 5760 5759 5759 5760 5760 5760 5761 5761 5761 5762 5762 5762 5763 5764
5700 5701 5701 5701 5701 5701 5701 5702 5702 5703 5704 5705 5706 5707 5707 5708 5709 5709 5711 5713 5713 5713 5715 5716 5717 5717 5717 5718 5719 5720 5721 5721 5722 5722 5722 5723 5725 5726 5725 5726 5728 5729 5729 5730 5731 5731 5731 5731 5732 5734 5735 5735 5736 5737 5738 5740 5741 5742 5744 5745 5745 5745 5746 5747 5747 5747 5748 5750 5751 5752 5755 5757 5759 5760 5759 5757 5757 5757 5757 5758 5759 5759 5759 5759 5760 5761 5761 5762
5698 5698 5698 5698 5698 5698 5699 5699 5699 5701 5702 5703 5704 5704 5704 5705 5706 5707 5708 5710 5710 5711 5712 5713 5714 5714 5713 5715 5716 5716 5717 5718 5719 5719 5720 5721 5722 5722 5723 5724 5726 5726 5726 5726 5728 5729 5729 5730 5730 5731 5732 5733 5734 5735 5736 5737 5738 5740 5742 5744 5744 5744 5744 5745 5745 5745 5746 5747 5748 5749 5751 5753 5756 5757 5757 5756 5755 5755 5755 5756 5756 5756 5756 5757 5758 5759 5760 5760
5695 5695 5695 5696 5696 5696 5696 5696 5697 5698 5699 5700 5701 5701 5701 5702 5703 5704 5705 5707 5708 5708 5709 5710 5711 5711 5711 5712 5713 5713 5714 5714 5715 5716 5717 5718 5719 5720 5721 5722 5723 5723 5723 5724 5725 5727 5727 5727 5728 5729 5730 5730 5732 5733 5734 5734 5736 5738 5740 5742 5743 5742 5742 5742 5743 5743 5744 5745 5745 5746 5748 5750 5753 5755 5755 5753 5753 5752 5752 5753 5753 5753 5754 5754 5755 5757 5758 5758
5692 5692 5693 5693 5693 5693 5693 5694 5694 5695 5696 5697 5698 5698 5699 5700 5701 5701 5702 5704 5705 5705 5706 5707 5708 5708 5708 5709 5710 5711 5711 5711 5712 5714 5715 5715 5715 5717 5719 5720 5720 5719 5720 5722 5723 5724 5724 5724 5725 5726 5727 5728 5729 5731 5732 5732 5734 5736 5737 5738 5739 5739 5740 5741 5741 5741 5741 5742 5744 5744 5746 5748 5749 5751 5752 5751 5751 5751 5750 5750 5751 5751 5752 5752 5753 5755 5756 5756
5689 5689 5690 5690 5690 5690 5690 5691 5692 5692 5693 5694 5695 5695 5696 5697 5698 5699 5700 5701 5702 5702 5704 5704 5705 5706 5705 5706 5708 5708 5708 5709 5710 5710 5712 5712 5712 5714 5716 5716 5716 5716 5717 5719 5721 5721 5722 5722 5723 5724 5725 5726 5728 5729 5729 5730 5732 5732 5733 5735 5736 5737 5738 5739 5739 5739 5739 5740 5742 5742 5742 5744 5745 5748 5749 5749 5750 5750 5748 5748 5749 5749 5750 5751 5752 5753 5753 5753
5686 5686 5686 5687 5687 5687 5688 5689 5689 5689 5690 5691 5691 5693 5694 5694 5695 5696 5697 5698 5699 5700 5701 5702 5702 5703 5703 5704 5706 5705 5705 5706 5707 5708 5709 5710 5710 5712 5713 5713 5713 5714 5715 5717 5719 5720 5720 5720 5720 5721 5723 5724 5726 5727 5727 5728 5729 5729 5730 5731 5732 5734 5736 5736 5737 5737 5737 5738 5739 5739 5739 5740 5742 5745 5747 5747 5748 5747 5746 5746 5747 5748 5748 5749 5749 5750 5750 5750
5682 5683 5683 5683 5684 5685 5685 5686 5686 5686 5687 5688 5688 5690 5691 5691 5692 5693 5695 5696 5697 5697 5698 5698 5698 5699 5700 5701 5702 5702 5702 5703 5704 5705 5707 5708 5708 5709 5710 5710 5711 5712 5713 5715 5717 5718 5717 5718 5719 5720 5721 5723 5724 5724 5724 5726 5727 5727 5728 5729 5730 5732 5734 5735 5735 5735 5735 5735 5736 5737 5737 5737 5739 5741 5743 5744 5744 5743 5742 5744 5745 5746 5746 5746 5746 5747 5747 5749
5679 5680 5680 5680 5681 5682 5681 5682 5683 5683 5684 5685 5686 5686 5687 5688 5689 5691 5692 5693 5694 5694 5694 5695 5695 5696 5696 5697 5699 5700 5700 5700 5701 5702 5704 5705 5706 5706 5708 5708 5709 5711 5712 5713 5715 5716 5716 5716 5717 5718 5720 5720 5721 5722 5722 5723 5725 5726 5726 5727 5728 5729 5731 5732 5732 5732 5733 5733 5733 5733 5734 5735 5736 5737 5739 5740 5740 5739 5739 5741 5742 5743 5744 5744 5744 5744 5745 5747
5675 5676 5677 5677 5678 5678 5677 5679 5680 5680 5680 5682 5682 5683 5684 5684 5686 5689 5689 5689 5690 5690 5691 5691 5692 5692 5692 5693 5695 5696 5697 5698 5698 5699 5700 5703 5704 5704 5705 5706 5707 5708 5710 5711 5712 5713 5714 5715 5715 5716 5718 5719 5720 5720 5720 5721 5722 5723 5724 5724 5725 5726 5727 5728 5728 5728 5729 5729 5730 5730 5731 5733 5733 5734 5736 5737 5737 5736 5736 5737 5739 5741 5741 5741 5742 5743 5743 5744
5671 5672 5673 5674 5674 5674 5673 5674 5676 5677 5677 5678 5679 5680 5680 5681 5684 5686 5686 5686 5687 5687 5687 5687 5688 5689 5690 5691 5692 5693 5694 5696 5697 5697 5697 5699 5701 5701 5703 5704 5705 5707 5708 5709 5709 5710 5711 5713 5714 5714 5716 5717 5718 5718 5718 5719 5720 5721 5721 5721 5722 5723 5724 5725 5725 5725 5726 5726 5727 5728 5729 5731 5731 5731 5732 5734 5733 5733 5734 5734 5736 5737 5738 5739 5740 5740 5741 5740
5666 5668 5669 5670 5670 5670 5669 5670 5672 5673 5674 5674 5675 5676 5677 5679 5682 5683 5682 5683 5683 5682 5683 5684 5684 5685 5686 5688 5690 5690 5692 5693 5695 5695 5695 5696 5698 5700 5701 5702 5703 5705 5706 5706 5707 5708 5709 5710 5712 5712 5713 5715 5716 5716 5716 5716 5717 5718 5718 5719 5720 5720 5721 5722 5722 5722 5723 5724 5724 5726 5726 5728 5729 5728 5729 5730 5730 5730 5731 5731 5733 5734 5735 5735 5737 5737 5738 5737
5662 5664 5665 5666 5665 5665 5665 5666 5668 5669 5670 5670 5671 5672 5675 5677 5679 5679 5679 5679 5680 5680 5681 5681 5681 5682 5683 5685 5687 5688 5689 5690 5691 5692 5693 5694 5696 5698 5700 5700 5701 5702 5703 5704 5705 5705 5706 5709 5709 5710 5711 5712 5714 5714 5714 5714 5714 5715 5716 5717 5718 5718 5718 5719 5719 5719 5720 5720 5722 5723 5723 5725 5726 5726 5726 5726 5726 5727 5728 5729 5730 5732 5732 5733 5734 5734 5735 5735
5658 5660 5661 5661 5660 5659 5660 5662 5663 5665 5665 5666 5667 5669 5672 5674 5675 5676 5676 5677 5677 5678 5679 5679 5679 5680 5681 5682 5683 5684 5684 5685 5686 5688 5690 5691 5692 5694 5697 5698 5699 5700 5701 5702 5702 5702 5705 5707 5707 5708 5709 5709 5710 5711 5712 5713 5713 5714 5715 5715 5715 5715 5715 5716 5717 5717 5717 5718 5719 5721 5721 5721 5722 5722 5722 5723 5723 5725 5726 5727 5729 5730 5730 5731 5731 5732 5733 5733
5654 5656 5656 5655 5654 5655 5656 5657 5658 5660 5660 5661 5664 5667 5669 5671 5672 5672 5673 5674 5674 5675 5675 5676 5677 5677 5678 5679 5680 5680 5680 5681 5683 5685 5687 5688 5690 5692 5693 5694 5696 5697 5697 5698 5699 5700 5702 5705 5705 5705 5706 5707 5707 5709 5711 5711 5712 5714 5714 5713 5713 5714 5713 5714 5714 5714 5714 5716 5717 5718 5718 5718 5719 5720 5720 5720 5721 5723 5724 5726 5727 5728 5728 5729 5730 5731 5731 5731
5651 5651 5651 5649 5649 5651 5652 5652 5653 5654 5655 5657 5660 5663 5665 5667 5668 5669 5669 5670 5670 5671 5672 5672 5673 5674 5675 5676 5677 5677 5677 5679 5680 5682 5684 5685 5687 5688 5689 5690 5692 5693 5693 5695 5696 5697 5699 5703 5703 5703 5705 5705 5706 5707 5708 5708 5708 5710 5711 5710 5711 5711 5711 5711 5712 5712 5712 5713 5714 5714 5715 5715 5716 5717 5717 5718 5719 5720 5722 5724 5725 5725 5726 5727 5728 5728 5728 5728
5646 5646 5645 5645 5646 5647 5648 5648 5648 5649 5651 5653 5656 5659 5661 5663 5665 5665 5666 5667 5667 5668 5669 5669 5669 5671 5672 5672 5673 5673 5675 5676 5676 5678 5679 5680 5683 5683 5684 5686 5687 5689 5690 5692 5693 5694 5696 5700 5702 5702 5703 5704 5704 5704 5704 5704 5704 5706 5707 5708 5708 5708 5709 5709 5710 5710 5710 5711 5712 5712 5713 5713 5713 5714 5714 5716 5717 5718 5720 5721 5722 5723 5724 5725 5726 5725 5725 5726
5641 5641 5641 5642 5643 5644 5644 5645 5645 5646 5647 5649 5652 5654 5656 5658 5660 5661 5662 5663 5664 5665 5665 5666 5666 5667 5668 5669 5670 5671 5672 5673 5674 5675 5675 5677 5679 5678 5679 5682 5684 5686 5687 5688 5690 5691 5692 5696 5699 5701 5702 5701 5701 5701 5701 5702 5703 5704 5705 5705 5705 5705 5706 5707 5707 5707 5708 5709 5710 5711 5711 5711 5711 5711 5712 5713 5714 5716 5717 5718 5719 5719 5720 5721 5722 5722 5723 5724
5636 5636 5636 5636 5638 5640 5640 5641 5642 5642 5643 5645 5647 5649 5651 5653 5655 5657 5658 5659 5660 5660 5661 5662 5662 5663 5665 5666 5668 5668 5669 5670 5671 5672 5673 5674 5676 5675 5675 5678 5681 5683 5684 5685 5686 5687 5689 5692 5696 5698 5700 5700 5699 5699 5699 5701 5702 5702 5702 5702 5702 5703 5704 5705 5705 5706 5706 5707 5707 5708 5709 5709 5708 5708 5709 5711 5713 5713 5715 5716 5716 5717 5717 5718 5718 5719 5720 5720
5630 5631 5631 5631 5633 5635 5636 5637 5638 5638 5638 5640 5641 5643 5645 5648 5650 5652 5653 5654 5655 5655 5656 5657 5658 5660 5662 5663 5664 5665 5666 5667 5668 5668 5670 5672 5673 5673 5673 5675 5677 5678 5680 5682 5683 5685 5687 5689 5692 5695 5697 5697 5697 5696 5697 5699 5700 5699 5699 5699 5700 5700 5701 5701 5703 5704 5704 5704 5704 5705 5706 5706 5706 5706 5708 5709 5710 5711 5712 5713 5714 5714 5714 5715 5715 5716 5717 5717
5625 5626 5626 5627 5629 5631 5633 5634 5634 5634 5634 5635 5637 5638 5640 5642 5645 5647 5648 5648 5649 5650 5651 5652 5654 5656 5658 5659 5661 5662 5663 5664 5664 5664 5666 5668 5670 5671 5672 5672 5674 5675 5676 5678 5680 5682 5684 5686 5688 5690 5693 5695 5695 5694 5695 5696 5697 5696 5697 5697 5697 5697 5698 5698 5699 5700 5701 5701 5702 5702 5702 5703 5703 5703 5705 5707 5707 5708 5709 5709 5710 5710 5711 5712 5712 5713 5713 5714
5620 5620 5622 5623 5625 5628 5629 5629 5628 5629 5630 5631 5633 5634 5635 5637 5639 5641 5643 5643 5643 5644 5646 5648 5650 5652 5654 5656 5658 5659 5660 5661 5661 5660 5662 5664 5666 5668 5669 5670 5671 5672 5673 5674 5676 5678 5680 5682 5684 5686 5689 5690 5691 5691 5692 5693 5694 5694 5694 5694 5693 5694 5695 5695 5695 5696 5697 5698 5698 5698 5698 5699 5699 5699 5701 5703 5704 5705 5705 5706 5706 5707 5708 5708 5708 5709 5710 5710
5615 5615 5617 5619 5621 5623 5625 5624 5623 5625 5626 5627 5629 5630 5631 5633 5635 5636 5637 5638 5639 5641 5642 5644 5646 5648 5651 5654 5655 5656 5655 5656 5658 5658 5659 5661 5662 5663 5665 5666 5667 5669 5671 5672 5673 5675 5677 5679 5680 5682 5684 5686 5686 5687 5689 5690 5691 5691 5691 5690 5690 5690 5691 5692 5692 5693 5694 5694 5694 5694 5695 5695 5694 5695 5696 5697 5699 5700 5701 5701 5702 5702 5703 5703 5704 5704 5705 5706
5610 5611 5612 5614 5617 5619 5620 5620 5620 5621 5622 5624 5625 5625 5627 5629 5631 5632 5633 5633 5635 5637 5638 5641 5643 5645 5647 5650 5652 5653 5652 5652 5655 5656 5657 5658 5659 5660 5661 5663 5664 5666 5668 5669 5670 5672 5673 5674 5676 5678 5680 5681 5682 5683 5685 5686 5687 5688 5687 5687 5686 5687 5687 5688 5689 5689 5690 5692 5691 5690 5691 5690 5690 5691 5691 5692 5694 5696 5696 5696 5697 5697 5698 5699 5699 5700 5700 5701
5604 5606 5608 5609 5612 5613 5614 5615 5616 5617 5619 5620 5620 5621 5623 5625 5627 5628 5629 5630 5633 5634 5635 5637 5640 5642 5643 5645 5648 5650 5650 5650 5652 5653 5654 5655 5657 5657 5657 5658 5661 5663 5665 5666 5668 5670 5671 5671 5673 5675 5676 5677 5679 5680 5681 5682 5683 5684 5684 5684 5683 5684 5684 5684 5684 5684 5686 5688 5687 5686 5687 5686 5686 5687 5688 5688 5689 5690 5691 5691 5692 5693 5694 5694 5694 5695 5695 5696
5599 5601 5603 5604 5606 5608 5610 5611 5612 5613 5614 5614 5616 5619 5621 5622 5623 5625 5626 5628 5630 5631 5632 5634 5637 5638 5639 5641 5644 5647 5648 5649 5650 5650 5651 5652 5653 5654 5653 5654 5656 5659 5661 5664 5666 5668 5669 5669 5670 5672 5673 5673 5675 5675 5677 5679 5680 5680 5679 5679 5680 5681 5681 5681 5681 5681 5682 5683 5682 5682 5683 5682 5682 5683 5684 5683 5683 5684 5685 5686 5687 5687 5688 5689 5689 5690 5690 5691
5595 5596 5598 5599 5601 5604 5607 5608 5609 5610 5611 5611 5613 5616 5617 5617 5619 5622 5624 5625 5626 5628 5630 5631 5633 5634 5636 5638 5640 5643 5646 5647 5648 5648 5648 5649 5650 5651 5650 5651 5652 5654 5655 5658 5661 5663 5665 5666 5667 5668 5669 5669 5670 5670 5672 5674 5675 5675 5674 5675 5676 5677 5677 5677 5678 5678 5678 5678 5678 5678 5678 5678 5677 5678 5679 5679 5678 5678 5678 5680 5681 5681 5681 5682 5682 5683 5685 5685
5592 5593 5595 5596 5599 5602 5604 5605 5606 5608 5608 5608 5610 5612 5613 5613 5615 5618 5620 5621 5622 5624 5626 5628 5629 5631 5632 5635 5637 5639 5642 5644 5645 5645 5646 5647 5647 5648 5648 5649 5649 5650 5651 5653 5655 5656 5658 5660 5662 5663 5664 5664 5665 5665 5667 5668 5669 5669 5669 5671 5671 5671 5672 5673 5673 5674 5673 5673 5673 5673 5673 5673 5673 5672 5673 5673 5673 5673 5673 5673 5674 5674 5674 5675 5675 5676 5677 5678
5591 5592 5593 5595 5597 5599 5600 5602 5603 5605 5605 5605 5607 5609 5610 5611 5612 5615 5616 5617 5619 5620 5622 5624 5626 5627 5629 5632 5633 5635 5637 5640 5641 5641 5642 5643 5644 5644 5646 5646 5646 5646 5646 5647 5649 5650 5652 5654 5655 5656 5658 5658 5659 5661 5662 5663 5663 5663 5664 5665 5665 5664 5666 5667 5667 5668 5667 5667 5668 5668 5668 5668 5667 5667 5667 5667 5668 5667 5666 5666 5666 5667 5668 5669 5670 5670 5670 5670